SCP
0 0 0 0 0 0 0 0 0 0 0 0 0 0 0 0 0 0 0 0 0 0 0 0 0 0 0 0 0 0 0 0 0 0 0 0 0 0 0 0 0 0 0
0 0 0 0 0 0 0 0 0 0 0 0 0 0 0 0 0 0 0 0 0 0 0 0 0 0 0 0 0 0 0 0 0 0 0 0 0 0 0 0 0 0 0
0 0 0 0 0 0 0 0 0 0 0 0 0 0 0 0 0 0 0 0 0 0 0 0 0 0 0 0 0 0 0 0 0 0 0 0 0 0 0 0 0 0 0
0 0 0 0 0 0 0 0 0 0 0 0 0 0 0 0 0 0 0 0 0 0 0 0 0 0 0 0 0 0 0 0 0 0 0 0 0 0 0 0 0 0 0
0 0 0 0 0 0 0 0 0 0 0 0 0 0 0 0 0 0 0 0 0 0 0 0 0 0 0 0 0 0 0 0 0 0 0 0 0 0 0 0 0 0 0
0 0 0 0 0 0 0 0 0 0 0 0 0 0 0 0 0 0 0 0 0 0 0 0 0 0 0 0 0 0 0 0 0 0 0 0 0 0 0 0 0 0 0
0 0 0 0 0 0 0 0 0 0 0 0 0 0 0 0 0 0 0 0 0 0 0 0 0 0 0 0 0 0 0 0 0 0 0 0 0 0 0 0 0 0 0
0 0 0 0 0 0 0 0 0 0 0 0 0 0 0 0 0 0 0 0 0 0 0 0 0 0 0 0 0 0 0 0 0 0 0 0 0 0 0 0 0 0 0
0 0 0 0 0 0 0 0 0 0 0 0 0 0 0 0 0 0 0 0 0 0 0 0 0 0 0 0 0 0 0 0 0 0 0 0 0 0 0 0 0 0 0
0 0 0 0 0 0 0 0 0 0 0 0 0 0 0 0 0 0 0 0 0 0 0 0 0 0 0 0 0 0 0 0 0 0 0 0 0 0 0 0 0 0 0
0 0 0 0 0 0 0 0 0 0 0 0 0 0 0 0 0 0 0 0 0 0 0 0 0 0 0 0 0 0 0 0 0 0 0 0 0 0 0 0 0 0 0
0 0 0 0 0 0 0 0 0 0 0 0 0 0 0 0 0 0 0 0 0 0 0 0 0 0 0 0 0 0 0 0 0 0 0 0 0 0 0 0 0 0 0
0 0 0 0 0 0 0 0 0 0 0 0 0 0 0 0 0 0 0 0 0 0 0 0 0 0 0 0 0 0 0 0 0 0 0 0 0 0 0 0 0 0 0
0 0 0 0 0 0 0 0 0 0 0 0 0 0 0 0 0 0 0 0 0 0 0 0 0 0 0 0 0 0 0 0 0 0 0 0 0 0 0 0 0 0 0
0 0 0 0 0 0 0 0 0 0 0 0 0 0 0 0 0 0 0 0 0 0 0 0 0 0 0 0 0 0 0 0 0 0 0 0 0 0 0 0 0 0 0
0 0 0 0 0 0 0 0 0 0 0 0 0 0 0 0 0 0 0 0 0 0 0 0 0 0 0 0 0 0 0 0 0 0 0 0 0 0 0 0 0 0 0
0 0 0 0 0 0 0 0 0 0 0 0 0 0 0 0 0 0 0 0 0 0 0 0 0 0 0 0 0 0 0 0 0 0 0 0 0 0 0 0 0 0 0
0 0 0 0 0 0 0 0 0 0 0 0 0 0 0 0 0 0 0 0 0 0 0 0 0 0 0 0 0 0 0 0 0 0 0 0 0 0 0 0 0 0 0
0 0 0 0 0 0 0 0 0 0 0 0 0 0 0 0 0 0 0 0 0 0 0 0 0 0 0 0 0 0 0 0 0 0 0 0 0 0 0 0 0 0 0
0 0 0 0 0 0 0 0 0 0 0 0 0 0 0 0 0 0 0 0 0 0 0 0 0 0 0 0 0 0 0 0 0 0 0 0 0 0 0 0 0 0 0
0 0 0 0 0 0 0 0 0 0 0 0 0 0 0 0 0 0 0 0 0 0 0 0 0 0 0 0 0 0 0 0 0 0 0 0 0 0 0 0 0 0 0
0 0 0 0 0 0 0 0 0 0 0 0 0 0 0 0 0 0 0 0 0 0 0 0 0 0 0 0 0 0 0 0 0 0 0 0 0 0 0 0 0 0 0
0 0 0 0 0 0 0 0 0 0 0 0 0 0 0 0 0 0 0 0 0 0 0 0 0 0 0 0 0 0 0 0 0 0 0 0 0 0 0 0 0 0 0
0 0 0 0 0 0 0 0 0 0 0 0 0 0 0 0 0 0 0 0 0 0 0 0 0 0 0 0 0 0 0 0 0 0 0 0 0 0 0 0 0 0 0
0 0 0 0 0 0 0 0 0 0 0 0 0 0 0 0 0 0 0 0 0 0 0 0 0 0 0 0 0 0 0 0 0 0 0 0 0 0 0 0 0 0 0
0 0 0 0 0 0 0 0 0 0 0 0 0 0 0 0 0 0 0 0 0 0 0 0 0 0 0 0 0 0 0 0 0 0 0 0 0 0 0 0 0 0 0
Wind_Speed
2 3 2 4 6 8 9 11 11 11 12 12 13 13 13 13 13 13 14 14 14 14 14 14 15 15 15 15 15 15 15 15 15 15 15 14 15 15 15 15 13 9 15
1 3 1 4 7 8 9 10 11 11 11 11 12 13 13 13 13 13 14 14 14 14 14 14 15 15 15 15 14 14 14 14 15 14 13 11 12 14 14 14 13 9 15
2 2 1 5 8 9 10 10 10 11 11 11 11 12 12 12 13 13 13 13 13 13 14 14 14 15 14 14 14 14 14 13 14 13 12 6 8 13 13 13 13 13 14
3 3 3 7 8 9 10 10 10 10 10 11 11 11 12 12 12 12 12 13 13 13 14 14 14 13 13 13 13 13 13 13 13 11 6 5 5 11 12 12 12 12 12
4 4 4 9 9 10 10 10 10 10 9 10 10 10 11 11 11 12 12 12 12 13 13 12 13 12 12 13 13 12 12 12 12 9 5 5 4 9 11 11 11 11 11
4 4 4 8 9 10 10 10 10 9 9 9 10 10 10 10 11 11 11 11 11 12 12 12 12 12 12 12 12 12 12 11 9 5 5 5 4 9 10 10 10 11 11
5 5 4 8 9 9 9 9 9 10 10 10 10 10 10 10 10 10 10 10 10 10 11 11 11 11 11 11 11 11 11 11 7 5 4 4 5 9 10 10 10 10 10
5 5 5 7 8 8 9 9 9 9 9 10 10 10 9 10 10 10 10 10 9 10 10 10 10 10 10 11 11 11 11 9 7 5 4 4 6 9 9 9 9 9 9
6 6 5 5 6 7 8 9 9 9 9 10 10 10 9 9 9 10 9 9 9 10 10 10 10 10 10 10 10 10 10 10 6 4 4 3 6 8 8 8 8 9 9
6 6 5 5 5 5 5 8 9 9 9 9 10 10 10 9 9 9 8 9 9 9 9 9 9 9 9 9 9 9 9 8 5 4 3 3 7 7 7 7 7 7 8
5 5 5 5 5 5 5 6 7 8 8 8 7 9 8 4 4 5 7 9 9 9 9 9 9 9 9 9 9 9 7 3 4 3 2 5 6 6 6 6 6 6 6
3 4 4 4 4 4 4 4 4 4 5 5 4 4 3 3 4 5 7 9 9 9 9 9 10 9 7 4 6 7 3 4 3 3 3 5 5 6 5 5 5 5 5
2 3 3 3 3 4 3 3 3 3 3 4 4 4 3 3 3 3 3 4 5 6 4 5 5 4 4 3 3 3 3 3 2 2 3 5 5 5 5 4 4 4 4
2 2 2 3 3 3 3 3 3 3 3 3 3 3 3 2 3 2 2 2 3 2 3 3 2 3 4 4 3 3 3 2 2 2 3 6 6 5 4 4 3 3 4
2 2 2 2 3 3 3 3 3 3 3 2 3 3 3 2 2 2 2 2 2 2 2 2 2 3 3 3 3 3 3 3 3 3 2 6 7 6 5 4 3 2 2
1 1 1 2 2 3 3 3 3 2 2 2 2 3 3 2 2 2 2 2 2 2 2 2 2 2 2 2 3 3 2 2 3 3 3 4 7 7 6 4 3 2 1
1 1 1 2 2 3 3 3 2 2 2 2 2 3 3 3 2 2 1 1 1 1 2 2 2 2 2 2 2 2 2 2 2 2 3 2 3 6 7 6 5 4 3
2 2 2 2 2 3 2 2 2 2 2 2 2 2 3 3 2 2 2 1 1 1 1 2 2 2 2 1 1 2 2 2 2 2 2 2 2 3 5 7 7 6 4
2 2 3 3 2 2 2 2 2 2 2 2 2 2 2 3 2 2 1 1 1 1 1 1 1 1 1 1 1 1 2 1 2 2 2 2 2 3 3 5 7 6 6
2 3 3 3 3 2 2 2 2 3 2 2 2 2 3 2 2 2 1 2 1 1 1 1 1 1 1 1 1 1 1 1 1 1 2 2 2 2 3 3 3 4 5
3 3 3 3 3 3 1 1 1 1 1 1 1 2 2 2 2 2 1 1 1 1 0 1 1 1 1 1 1 1 1 1 1 1 1 1 2 2 2 3 2 2 3
2 2 2 2 1 2 2 1 0 1 0 0 1 2 2 2 2 1 1 1 1 1 1 0 1 1 0 1 1 0 1 2 1 1 1 1 1 2 2 2 2 2 2
1 1 1 1 1 1 2 2 2 2 2 1 2 2 3 3 2 2 1 0 0 0 0 1 1 2 2 1 1 1 1 2 2 1 1 1 1 1 2 1 2 2 2
0 1 1 1 1 2 2 2 2 1 1 1 1 1 2 2 2 2 1 0 0 0 0 1 1 1 2 2 1 1 1 1 1 2 1 1 1 2 2 2 2 2 2
0 1 1 1 2 2 2 2 1 1 1 1 2 2 2 2 2 2 2 1 1 1 1 1 1 1 1 2 2 1 1 1 1 2 3 2 2 2 2 2 2 2 2
1 1 1 1 1 1 1 1 1 1 1 1 2 2 2 2 2 3 3 2 1 1 2 1 2 2 2 1 2 2 2 2 2 2 3 3 3 3 2 2 2 2 2
Wind_Direction
316 312 320 76 91 93 92 90 87 84 83 83 85 87 87 86 84 82 79 78 76 76 76 76 76 75 74 74 74 73 72 71 71 71 70 70 75 76 76 72 69 68 75
304 315 16 91 95 95 95 92 89 87 85 84 85 85 85 85 85 83 79 78 77 78 77 75 75 73 72 73 74 74 74 73 70 68 65 64 69 76 77 75 72 72 76
31 3 43 91 98 95 93 90 89 89 87 87 86 85 84 82 82 82 80 78 77 78 77 75 74 73 73 72 73 75 75 75 71 67 63 53 64 75 77 76 75 75 75
42 30 54 85 95 94 94 90 89 89 89 89 88 86 84 82 80 80 80 78 77 76 76 75 74 73 72 72 72 73 74 73 69 66 53 43 55 74 76 76 76 76 76
48 37 58 83 88 93 93 90 88 88 89 91 89 87 85 84 82 80 78 77 76 75 74 73 72 72 72 72 72 73 74 72 65 57 45 43 51 74 75 76 77 78 77
54 40 61 82 85 87 91 90 89 87 89 90 89 89 86 85 82 80 77 76 76 75 73 73 72 72 71 72 73 72 73 68 58 49 44 42 50 73 75 75 77 79 78
58 41 53 81 86 86 86 89 90 87 86 86 87 87 86 84 83 81 78 75 75 76 75 72 73 72 71 71 74 74 71 64 55 49 45 42 56 71 73 73 73 77 79
68 54 51 65 77 83 83 83 84 85 85 81 81 82 83 83 83 81 79 76 75 75 74 73 72 72 72 72 75 74 69 63 56 48 43 46 62 70 74 71 71 72 76
63 57 49 49 53 66 78 79 78 80 80 78 77 76 75 77 80 79 77 76 74 73 70 69 71 72 72 72 74 71 67 61 52 40 36 41 59 68 72 72 72 72 74
57 50 45 45 45 46 57 70 71 73 74 73 70 71 69 71 74 74 71 72 72 71 69 69 69 71 71 70 69 68 63 55 46 37 26 42 58 66 72 76 75 73 72
51 42 43 45 44 46 55 60 62 64 64 66 65 69 66 62 65 62 63 68 70 70 69 69 69 68 66 64 62 60 57 45 42 34 23 45 56 65 68 71 73 74 72
58 38 40 46 47 51 59 59 51 53 50 53 57 58 58 56 58 61 61 65 64 62 63 64 64 64 59 52 51 50 44 42 41 25 25 42 53 61 67 68 69 72 72
96 53 40 47 50 58 63 62 54 50 46 46 51 54 63 61 55 53 54 52 53 52 53 54 52 49 51 50 50 45 43 46 37 16 14 37 46 55 60 64 64 68 76
87 64 52 54 62 57 66 69 66 59 51 48 44 48 62 66 58 57 57 54 54 53 60 58 57 53 51 48 55 54 47 44 38 20 11 28 38 45 49 61 65 68 72
91 65 58 62 71 70 73 71 66 59 54 49 50 41 50 65 66 64 57 60 61 61 68 68 70 65 57 45 44 52 49 42 37 27 10 21 29 33 36 45 49 62 73
101 79 65 70 68 73 74 72 73 61 53 50 49 43 44 60 61 63 65 59 54 58 70 79 86 83 71 58 46 39 46 44 37 29 19 14 19 22 24 31 34 36 56
88 68 74 84 69 78 77 76 78 70 62 54 44 44 43 52 64 61 68 65 50 48 68 76 66 66 64 58 44 28 32 35 39 35 22 17 10 16 20 25 24 24 31
76 69 64 70 66 69 74 77 82 79 72 57 48 46 36 36 55 67 60 48 38 59 63 81 75 68 54 51 34 10 15 11 25 29 27 20 14 8 9 22 20 17 25
75 74 66 64 66 68 68 72 73 74 67 52 47 48 35 33 39 64 56 29 30 70 73 79 70 88 81 42 23 18 8 2 1 10 20 19 11 9 1 8 12 14 16
74 65 60 59 44 52 67 64 58 55 49 42 38 34 34 31 31 45 59 25 31 66 50 60 104 77 104 104 22 9 346 342 358 7 357 4 0 4 5 360 357 355 4
69 69 66 60 44 48 56 71 65 34 24 31 27 28 28 24 36 48 48 39 26 70 53 68 105 122 85 79 59 346 335 336 347 345 347 358 355 352 358 357 353 350 341
87 77 72 61 56 50 41 40 83 107 68 53 21 23 22 18 23 37 47 41 29 32 29 71 81 130 106 109 123 117 322 316 329 337 326 324 332 341 340 344 350 343 339
92 82 75 50 66 54 49 55 54 55 37 27 16 10 4 4 7 17 4 22 43 59 267 253 191 164 181 200 146 156 177 237 299 299 276 294 309 299 304 313 324 325 326
188 106 76 68 60 59 73 73 77 78 42 325 324 331 341 353 360 0 348 315 193 199 274 284 245 229 178 190 207 238 212 176 195 292 295 279 277 276 286 299 297 302 307
144 103 99 69 59 54 70 92 93 73 31 359 3 358 348 342 349 1 5 351 318 262 245 283 272 237 209 195 190 196 209 220 203 209 263 283 281 258 263 265 263 266 274
88 78 87 86 59 52 67 85 107 105 28 16 359 355 351 339 341 352 352 345 325 303 274 261 251 219 220 230 210 190 190 195 202 207 233 259 268 265 261 262 254 253 248